Location: Dana
(41.8364°N, 106.7042°W)
Time: 02:49:56
(UTC+00:00)

Transit 4A - Pass Details

Date: 10 May 2026
Orbit: 860 x 980 km, 66.8° (Epoch: 6 June)

Event Time Altitude Azimuth Distance (km) Brightness Sun altitude
Rises 03:17:52 0° 307° (NW) 3,688 13.3 -11.1°
Reaches altitude 10° 03:23:35 10° 267° (W) 2,724 11.1 -11.9°
Maximum altitude 03:24:13 10° 261° (W) 2,711 11.0 -12.0°
Drops below altitude 10° 03:24:50 10° 255° (WSW) 2,719 10.9 -12.1°
Sets 03:30:31 0° 215° (SW) 3,635 11.0 -12.9°
